Home > Weather > Medellin > Past weeks

Flag for Colombia Weather for the Past 2 Weeks in Medellin, Colombia

Now
73 °F

Broken clouds.


Feels Like: 77 °F
Forecast: 63 / 87 °F
Wind: 14 mph from Southeast

Location: Rionegro / J. M. Cordova

Current Time: Feb 10, 2016 at 3:11:05 PM

Latest Report: Feb 10, 2016 at 2:00 PM


Visibility: N/A

Pressure: 30.28 "Hg (25.53 "Hg at 1479m altitude)

Humidity: 50%

Dew point: 54 °F

Location of MedellinLocation

Historic Weather in Medellin — Graph

°F

Medellin Temperature Yesterday

Maximum temperature yesterday: 73 °F (at 12:00 PM)
Minimum temperature yesterday: 54 °F (at 4:00 AM)
Average temperature yesterday: 63 °F

High & Low Weather Summary for the Past Weeks

 TemperatureHumidityPressure
High75 °F (Jan 26, 2:00 PM)100% (Jan 27, 6:00 AM)30.38 "Hg (Jan 27, 6:00 AM)
Low52 °F (Feb 4, 7:00 AM)38% (Feb 6, 2:00 PM)30.16 "Hg (Feb 2, 4:00 PM)
Average64 °F78%30.28 "Hg
* Reported Jan 26 2:00 PM — Feb 10 2:00 PM, Medellin, Weather by CustomWeather, © 2016

Note: Actual official high and low records may vary slightly from our data, if they occured in-between our weather recording intervals... More about our weather records

Advertising

Medellin Weather History for the Previous 24 Hours

 ConditionsComfort  
Time TempWeatherWind HumidityBarometerVisibility
2:00 PM
Wed, Feb 10
73 °FBroken clouds.14 mph50%30.28 "HgN/A
1:00 PM73 °FBroken clouds.9 mph50%30.29 "HgN/A
12:00 PM72 °FScattered clouds.12 mph53%30.33 "HgN/A
11:00 AM70 °FScattered clouds.10 mph57%30.35 "HgN/A
10:00 AM66 °FScattered clouds.No wind73%30.36 "HgN/A
9:00 AM64 °FPartly sunny.No wind78%30.38 "HgN/A
8:00 AM63 °FPartly sunny.5 mph83%30.35 "HgN/A
7:00 AM59 °FRain. Partly sunny.No wind94%30.33 "HgN/A
6:00 AM57 °FFog.No wind94%30.30 "Hg4 mi
5:00 AM59 °FFog.No wind94%30.28 "Hg4 mi
4:00 AM59 °FPartly cloudy.No wind94%30.28 "Hg4 mi
3:00 AM61 °FPassing clouds.2 mph88%30.29 "Hg4 mi
2:00 AM59 °FPartly cloudy.5 mph94%30.31 "Hg4 mi
1:00 AM57 °FPassing clouds.No wind94%30.32 "Hg4 mi
12:00 AM59 °FPassing clouds.5 mph88%30.34 "Hg6 mi
11:00 PM
Tue, Feb 9
59 °FPassing clouds.No wind94%30.34 "Hg5 mi
10:00 PM61 °FPassing clouds.No wind83%30.35 "HgN/A
9:00 PM61 °FPassing clouds.2 mph83%30.33 "HgN/A
8:00 PM63 °FPassing clouds.5 mph73%30.30 "HgN/A
7:00 PM66 °FPassing clouds.7 mph60%30.28 "HgN/A
6:00 PM70 °FPassing clouds.7 mph53%30.25 "HgN/A
5:00 PM72 °FPartly sunny.7 mph41%30.25 "HgN/A
4:00 PM72 °FPartly sunny.9 mph47%30.24 "HgN/A
3:00 PM73 °FBroken clouds.12 mph44%30.25 "HgN/A
Weather by CustomWeather, © 2016

See weather overviewHow to use our weather pages